Location: Maiden
(35.5760°N, 81.2120°W)
Time: 20:29:13
(UTC-04:00)

Resurs 01 Rocket - Pass Details

Date: 14 June 2018
Orbit: 635 x 644 km, 98.1° (Epoch: 16 October)

Event Time Altitude Azimuth Distance (km) Brightness Sun altitude
Exits shadow 22:41:56 - 214° (SW) 2,890 4.8 -19.6°
Reaches altitude 10° 22:45:25 10° 245° (WSW) 2,018 4.3 -20.0°
Maximum altitude 22:47:08 12° 268° (W) 1,887 4.5 -20.2°
Drops below altitude 10° 22:48:51 10° 291° (WNW) 2,025 5.0 -20.5°
Sets 22:52:28 0° 322° (NW) 2,942 6.6 -20.9°
